#timestamp,LO_Frequency,Hit 
1501624815.8,286047000.5,N
1501624835.6,286047000.1,N
1501624855.4,286046998.2,N
1501624875.3,286047000.0,N
1501624895.1,286047001.2,N
1501624915.9,286047001.3,N
1501624935.7,286047002.5,N
1501624955.5,286047001.6,N
1501624975.4,286047002.3,N
1501624995.2,286047002.4,N
1501625015.0,286047001.2,N
1501625016.0,286047001.2,N
1501625035.8,286046998.9,N
1501625055.6,286046996.9,N
1501625075.5,286046997.4,N
1501625095.3,286046999.6,N
1501625115.1,286046999.2,N
1501625135.9,286046997.6,N
1501625155.7,286046997.7,N
1501625175.6,286046996.9,N
1501625195.4,286046999.5,N
1501625215.2,286046996.9,N
1501625235.1,286046998.0,N
1501625236.0,286046998.0,N
1501625255.8,286046995.4,N
1501625275.6,286046997.0,N
1501625295.5,286046998.9,N
1501625315.3,286046996.5,N
1501625335.2,286046999.0,N
1501625355.9,286047000.7,N
1501625375.7,286047000.2,N
1501625395.6,286047001.9,N
1501625415.4,286047002.8,N
1501625435.3,286047002.0,N
1501625455.1,286047002.4,N
1501625456.0,286047002.4,N
1501625475.8,286046998.9,N
1501625495.7,286046998.3,N
1501625515.5,286047000.9,N
1501625535.3,286046999.7,N
1501625555.2,286047000.2,N
1501625575.0,286047001.9,N
1501625575.9,286047001.9,N
1501625595.8,286047002.3,N
1501625615.6,286047004.4,N
1501625635.4,286047003.6,N
1501625655.3,286047001.7,N
1501625675.1,286047001.6,N
1501625695.9,286047001.4,N
1501625715.7,286047005.9,N
1501625735.5,286047006.1,N
1501625755.4,286047008.7,P
1501625775.2,286047007.3,N
1501625795.0,286047005.4,N
1501625795.9,286047005.4,N
1501625815.8,286047003.7,N
1501625835.6,286047003.9,N
1501625855.5,286047002.0,N
1501625875.3,286047000.2,N
1501625895.1,286047002.5,N
1501625915.9,286047002.0,N
1501625935.7,286047004.0,N
1501625955.5,286047005.5,N
1501625975.4,286047003.2,N
1501625995.2,286047004.1,N
1501626015.1,286047003.2,N
1501626016.0,286047003.2,N
1501626035.8,286047003.4,N
1501626055.6,286047003.8,N
1501626075.5,286047005.7,N
1501626095.3,286047003.1,N
1501626115.2,286047007.5,P
1501626135.9,286047001.6,N
1501626155.7,286047004.1,N
1501626175.6,286047003.9,N
1501626195.4,286047003.8,N
1501626215.2,286047004.0,N
1501626235.1,286047003.5,N
1501626236.0,286047003.5,N
1501626255.8,286047007.1,P
1501626275.7,286047000.4,N
1501626295.5,286047002.8,N
1501626315.3,286047003.9,N
1501626335.2,286047004.1,N
1501626355.0,286047004.4,N
1501626355.9,286047004.4,N
1501626375.8,286047002.6,N
1501626395.6,286047001.7,N
1501626415.4,286047002.1,N
1501626435.3,286047000.4,N
1501626455.1,286046998.6,N
1501626475.8,286046995.6,N
1501626495.7,286046997.6,N
1501626515.5,286046996.9,N
1501626535.4,286046999.3,N
1501626555.2,286046998.3,N
1501626575.0,286047001.0,N
1501626575.9,286047001.0,N
1501626595.8,286047000.2,N
1501626615.6,286047000.7,N
1501626635.4,286047000.7,N
1501626655.3,286046999.4,N
1501626675.1,286046998.4,N
1501626695.9,286046997.2,N
1501626715.7,286046995.0,N
1501626735.5,286046996.4,N
1501626755.4,286046995.0,N
1501626775.2,286046999.3,N
1501626795.0,286046998.8,N
1501626796.0,286046998.8,N
1501626815.8,286046995.0,N
1501626835.6,286046993.5,N
1501626855.5,286046994.6,N
1501626875.3,286046991.8,N
1501626895.1,286046994.7,N
1501626915.9,286046992.0,N
1501626935.7,286046994.3,N
1501626955.6,286046994.1,N
1501626975.4,286046994.5,N
1501626995.2,286046994.8,N
1501627015.1,286046992.4,N
1501627016.0,286046992.4,N
1501627035.8,286046991.7,N
1501627055.6,286046992.6,N
1501627075.5,286046992.9,N
1501627095.3,286046993.1,N
1501627115.2,286046993.2,N
1501627135.0,286046992.8,N
1501627135.9,286046992.8,N
1501627155.7,286046991.9,N
1501627175.6,286046992.0,P
1501627195.4,286046999.3,N
1501627215.3,286046999.4,N
1501627235.1,286046999.3,N
1501627255.8,286046996.6,N
1501627275.7,286046998.3,N
1501627295.5,286046998.1,N
1501627315.5,286047000.8,N
1501627335.4,286047001.0,N
1501627355.2,286046999.9,N
1501627375.1,286047000.3,N
1501627376.0,286047000.3,N
1501627395.8,286047000.4,N
1501627415.6,286047000.8,N
1501627435.5,286047000.0,N
1501627455.3,286047001.6,N
1501627475.2,286047005.9,N
1501627495.9,286047003.3,N
1501627515.7,286047003.2,N
1501627535.6,286047002.0,N
1501627555.4,286047003.8,N
1501627575.2,286047001.3,N
1501627595.1,286047003.9,N
1501627596.0,286047003.9,N
1501627615.8,286047002.3,N
1501627635.7,286047001.8,N
1501627655.5,286047005.4,N
1501627675.3,286047005.1,N
1501627695.2,286047007.4,N
1501627715.0,286047006.2,N
1501627715.9,286047006.2,N
1501627735.8,286047010.5,P
1501627755.6,286047008.4,N
1501627775.4,286047010.2,N
1501627795.3,286047009.8,N
1501627815.1,286047011.4,P
1501627835.9,286047005.2,P
1501627855.7,286047005.7,N
1501627875.5,286047004.9,N
1501627895.4,286047008.4,P
1501627915.2,286047001.8,N
1501627935.0,286047004.1,N
1501627936.0,286047004.1,N
1501627955.8,286047003.5,N
1501627975.6,286047005.8,N
1501627995.5,286047006.2,N
1501628015.3,286047010.3,P
1501628035.1,286047009.1,P
1501628055.9,286047011.2,P
1501628075.7,286047017.1,P
1501628095.6,286047009.9,N
1501628115.4,286047011.9,P
1501628135.2,286047012.5,P
1501628155.1,286047003.7,P
1501628156.0,286047003.7,N
1501628175.8,286047005.3,N
1501628195.7,286047005.9,N
1501628215.5,286047005.5,N
1501628235.3,286047006.5,N
1501628255.2,286047006.1,N
1501628275.0,286047008.6,N
1501628275.9,286047008.6,N
1501628295.8,286047006.2,N
1501628315.6,286047006.8,N
1501628335.4,286047007.0,N
1501628355.3,286047005.1,N
1501628375.1,286047005.8,N
1501628395.8,286047003.7,N
